軌道要素
Epoch 2016 July 31.0 TT = JDT 2457600.5
T 2016 July 20.30753 TT MPCW
q 1.5921646 (2000.0) P Q
n 0.15386466 Peri. 41.69730 -0.99854168 -0.03716216
a 3.4491345 Node 136.12557 +0.02060676 -0.93281215
e 0.5383872 Incl. 3.23899 +0.04989857 -0.35844172
P 6.41
From 4951 observations 2002 Sept. 5-2017 June 2, mean residual 0".7.
Nongravitational parameters A1 = +0.03, A2 = -0.0147.
|